This is the latest recevied weather packets stored in our database for station/object W2JGA. If no packets are shown the sender has not sent any weather packets the latest 10 day(s).
| Time | Temp. | Humidity | Pressure | Rain* | Wind** | Luminosity | Snow |
|---|---|---|---|---|---|---|---|
| 1778007681 | 22.22° C | 55% | 1014.3 hPa | 0 mm | - | 209 W/m² | - |
| 1778007379 | 22.22° C | 54% | 1014.3 hPa | 0 mm | - | 345 W/m² | - |
| 1778007075 | 21.67° C | 55% | 1014.7 hPa | 0 mm | - | 862 W/m² | - |
| 1778006771 | 21.67° C | 56% | 1014.7 hPa | 0 mm | - | 284 W/m² | - |
| 1778006468 | 22.22° C | 55% | 1014.7 hPa | 0 mm | - | 833 W/m² | - |
| 1778006165 | 21.11° C | 57% | 1014.7 hPa | 0 mm | - | 876 W/m² | - |
| 1778005863 | 21.67° C | 58% | 1015 hPa | 0 mm | - | 419 W/m² | - |
| 1778005558 | 21.67° C | 55% | 1014.7 hPa | 0 mm | - | 873 W/m² | - |
| 1778005256 | 21.67° C | 58% | 1015 hPa | 0 mm | - | 684 W/m² | - |
| 1778004952 | 22.22° C | 55% | 1015 hPa | 0 mm | - | 425 W/m² | - |
| 1778004650 | 21.11° C | 59% | 1015 hPa | 0 mm | - | 847 W/m² | - |
| 1778004346 | 20.56° C | 60% | 1015 hPa | 0 mm | - | 865 W/m² | - |
| 1778004044 | 20° C | 62% | 1015.4 hPa | 0 mm | - | 515 W/m² | - |
| 1778003743 | 19.44° C | 62% | 1015 hPa | 0 mm | - | 374 W/m² | - |
| 1778003441 | 20° C | 63% | 1015.4 hPa | 0 mm | - | 150 W/m² | - |
| 1778003138 | 20.56° C | 62% | 1015.4 hPa | 0 mm | - | 259 W/m² | - |
| 1778002833 | 20.56° C | 62% | 1015.4 hPa | 0 mm | - | 1018 W/m² | - |
| 1778002531 | 21.67° C | 61% | 1015.4 hPa | 0 mm | - | 719 W/m² | - |
| 1778002227 | 21.67° C | 58% | 1015.4 hPa | 0 mm | - | 729 W/m² | - |
| 1778001925 | 20.56° C | 63% | 1015.4 hPa | 0 mm | - | 988 W/m² | - |
| 1778001621 | 20.56° C | 62% | 1015.4 hPa | 0 mm | - | 295 W/m² | - |
| 1778001316 | 20.56° C | 63% | 1015.4 hPa | 0 mm | - | 538 W/m² | - |
| 1778001014 | 21.11° C | 62% | 1015.4 hPa | 0 mm | - | 671 W/m² | - |
| 1778000705 | 20.56° C | 62% | 1015.4 hPa | 0 mm | - | 491 W/m² | - |
| 1778000401 | 20° C | 65% | 1015 hPa | 0 mm | - | 309 W/m² | - |
* Rain latest hour (hover to see other rain measurements)
** Current wind speed in m/s (hover to see current wind gust speed)